Home > Weather > Pocatello > Past weeks

Flag for U.S.A. Weather for the Past 2 Weeks in Pocatello, Idaho, U.S.A.

Now
33 °F

Passing clouds.


Feels Like: 28 °F
Forecast: 23 / 36 °F
Wind: 6 mph from West

Location: Pocatello Regional Airport

Current Time: Feb 7, 2016 at 3:44:38 PM

Latest Report: Feb 7, 2016 at 2:53 PM


Visibility: 10 mi

Pressure: 30.66 "Hg (25.88 "Hg at 1357m altitude)

Humidity: 72%

Dew point: 25 °F

Location of PocatelloLocation

Historic Weather in Pocatello — Graph

°F

Pocatello Temperature Yesterday

Maximum temperature yesterday: 39 °F (at 1:53 PM)
Minimum temperature yesterday: 13 °F (at 1:53 AM)
Average temperature yesterday: 27 °F

High & Low Weather Summary for the Past Weeks

 TemperatureHumidityPressure
High40 °F (Jan 29, 6:53 PM)100% (Jan 23, 4:53 PM)30.69 "Hg (Jan 23, 4:53 PM)
Low4 °F (Feb 3, 7:53 AM)55% (Feb 6, 1:53 PM)29.70 "Hg (Jan 29, 7:53 PM)
Average23 °F85%30.31 "Hg
* Reported Jan 23 1:53 PM — Feb 7 1:53 PM, Pocatello, Weather by CustomWeather, © 2016

Note: Actual official high and low records may vary slightly from our data, if they occured in-between our weather recording intervals... More about our weather records

Advertising

Pocatello Weather History for the Previous 24 Hours

 ConditionsComfort  
Time TempWeatherWind HumidityBarometerVisibility
1:53 PM
Sun, Feb 7
33 °FPassing clouds.5 mph72%30.65 "Hg10 mi
12:53 PM32 °FPassing clouds.No wind69%30.67 "Hg10 mi
11:53 AM29 °FPassing clouds.3 mph72%30.69 "Hg10 mi
10:53 AM27 °FScattered clouds.6 mph75%30.69 "Hg10 mi
9:53 AM23 °FScattered clouds.7 mph78%30.67 "Hg10 mi
8:53 AM20 °FScattered clouds.3 mph82%30.66 "Hg10 mi
7:53 AM20 °FPassing clouds.7 mph92%30.63 "Hg10 mi
6:53 AM32 °FPassing clouds.10 mph73%30.56 "Hg10 mi
5:53 AM29 °FPassing clouds.6 mph82%30.56 "Hg10 mi
4:53 AM30 °FOvercast.8 mph82%30.54 "Hg10 mi
3:53 AM31 °FOvercast.9 mph76%30.53 "Hg10 mi
2:53 AM32 °FOvercast.10 mph75%30.50 "Hg10 mi
1:53 AM35 °FOvercast.14 mph70%30.47 "Hg10 mi
12:53 AM34 °FPassing clouds.9 mph70%30.49 "Hg10 mi
11:53 PM
Sat, Feb 6
35 °FOvercast.13 mph70%30.49 "Hg10 mi
10:53 PM32 °FOvercast.10 mph79%30.50 "Hg10 mi
9:53 PM36 °FMostly cloudy.6 mph64%30.50 "Hg10 mi
8:53 PM36 °FClear.17 mph62%30.48 "Hg10 mi
7:53 PM37 °FClear.17 mph60%30.49 "Hg10 mi
6:53 PM34 °FClear.18 mph67%30.51 "Hg10 mi
5:53 PM35 °FScattered clouds.17 mph64%30.47 "Hg10 mi
4:53 PM38 °FScattered clouds.16 mph58%30.47 "Hg10 mi
3:53 PM38 °FPassing clouds.16 mph60%30.47 "Hg10 mi
Weather by CustomWeather, © 2016

See weather overviewHow to use our weather pages